owner,sensor,date,latitude,longitude,vertical_datum,wind_speed,wind_to_direction,wind_speed_of_gust,qcFlag 
TABS,ioos:station:wmo:42046:1,2008-10-01T00:00:00Z,27.8903,-94.0367,4.0,2.925884482,331.8582541,3.79,'11111222,11111222,11111222' 
TABS,ioos:station:wmo:42046:1,2008-10-01T00:30:00Z,27.8903,-94.0367,4.0,2.441003892,330.2840914,3.24,'11111222,11111222,11111222' 
TABS,ioos:station:wmo:42046:1,2008-10-01T01:00:00Z,27.8903,-94.0367,4.0,2.7,323.1299781,3.53,'11111222,11111222,11111222' 
TABS,ioos:station:wmo:42046:1,2008-10-01T01:30:00Z,27.8903,-94.0367,4.0,2.986134625,312.8285881,3.86,'11111222,11111222,11111222' 
TABS,ioos:station:wmo:42046:1,2008-10-01T02:00:00Z,27.8903,-94.0367,4.0,3.007191381,298.6103928,3.75,'11111222,11111222,11111222' 
TABS,ioos:station:wmo:42046:1,2008-10-01T02:30:00Z,27.8903,-94.0367,4.0,3.175216528,296.5649891,3.98,'11111222,11111222,11111222' 
TABS,ioos:station:wmo:42046:1,2008-10-01T03:00:00Z,27.8903,-94.0367,4.0,3.587366722,295.4220854,4.48,'11111222,11111222,11111222' 
TABS,ioos:station:wmo:42046:1,2008-10-01T03:30:00Z,27.8903,-94.0367,4.0,3.637430412,294.8740957,4.69,'11111222,11111222,11111222' 
TABS,ioos:station:wmo:42046:1,2008-10-01T04:00:00Z,27.8903,-94.0367,4.0,3.563958473,290.875871,4.7,'11111222,11111222,11111222' 
TABS,ioos:station:wmo:42046:1,2008-10-01T04:30:00Z,27.8903,-94.0367,4.0,3.383740534,290.9523633,4.12,'11111222,11111222,11111222' 
TABS,ioos:station:wmo:42046:1,2008-10-01T05:00:00Z,27.8903,-94.0367,4.0,3.854672489,285.1899003,4.98,'11111222,11111222,11111222' 
TABS,ioos:station:wmo:42046:1,2008-10-01T05:30:00Z,27.8903,-94.0367,4.0,4.010012469,282.8232355,5.22,'11111222,11111222,11111222' 
TABS,ioos:station:wmo:42046:1,2008-10-01T06:00:00Z,27.8903,-94.0367,4.0,4.515750215,288.5953973,5.57,'11111222,11111222,11111222' 
TABS,ioos:station:wmo:42046:1,2008-10-01T06:30:00Z,27.8903,-94.0367,4.0,5.02003984,298.3006896,6.18,'11111222,11111222,11111222' 
TABS,ioos:station:wmo:42046:1,2008-10-01T07:00:00Z,27.8903,-94.0367,4.0,5.599151721,310.1461296,7.61,'11111222,11111222,11111222' 
TABS,ioos:station:wmo:42046:1,2008-10-01T07:30:00Z,27.8903,-94.0367,4.0,5.404535133,316.6493136,6.87,'11111222,11111222,11111222' 
TABS,ioos:station:wmo:42046:1,2008-10-01T08:00:00Z,27.8903,-94.0367,4.0,4.809251501,326.2767583,6.96,'11111222,11111222,11111222' 
TABS,ioos:station:wmo:42046:1,2008-10-01T08:30:00Z,27.8903,-94.0367,4.0,4.496053825,343.4592638,6.2,'11111222,11111222,11111222' 
TABS,ioos:station:wmo:42046:1,2008-10-01T09:00:00Z,27.8903,-94.0367,4.0,4.185355421,353.6898478,5.83,'11111222,11111222,11111222' 
TABS,ioos:station:wmo:42046:1,2008-10-01T09:30:00Z,27.8903,-94.0367,4.0,5.664988967,35.00829932,7.19,'11111222,11111222,11111222' 
TABS,ioos:station:wmo:42046:1,2008-10-01T10:00:00Z,27.8903,-94.0367,4.0,5.685771715,45.85477971,6.92,'11111222,11111222,11111222' 
TABS,ioos:station:wmo:42046:1,2008-10-01T10:30:00Z,27.8903,-94.0367,4.0,5.878715846,43.27650833,7.21,'11111222,11111222,11111222' 
TABS,ioos:station:wmo:42046:1,2008-10-01T11:00:00Z,27.8903,-94.0367,4.0,5.766003815,51.61919857,7.07,'11111222,11111222,11111222' 
TABS,ioos:station:wmo:42046:1,2008-10-01T11:30:00Z,27.8903,-94.0367,4.0,5.44165416,50.51764951,6.94,'11111222,11111222,11111222' 
TABS,ioos:station:wmo:42046:1,2008-10-01T12:00:00Z,27.8903,-94.0367,4.0,5.544231236,47.99710195,6.96,'11111222,11111222,11111222' 
TABS,ioos:station:wmo:42046:1,2008-10-01T12:30:00Z,27.8903,-94.0367,4.0,5.528001447,53.08830916,6.85,'11111222,11111222,11111222' 
TABS,ioos:station:wmo:42046:1,2008-10-01T13:00:00Z,27.8903,-94.0367,4.0,4.90935841,43.34896984,6.09,'11111222,11111222,11111222' 
TABS,ioos:station:wmo:42046:1,2008-10-01T13:30:00Z,27.8903,-94.0367,4.0,4.806922092,42.21725467,6.43,'11111222,11111222,11111222' 
TABS,ioos:station:wmo:42046:1,2008-10-01T14:00:00Z,27.8903,-94.0367,4.0,4.790156574,41.27563505,6.02,'11111222,11111222,11111222' 
TABS,ioos:station:wmo:42046:1,2008-10-01T14:30:00Z,27.8903,-94.0367,4.0,4.247928907,38.59631369,5.7,'11111222,11111222,11111222' 
TABS,ioos:station:wmo:42046:1,2008-10-01T15:00:00Z,27.8903,-94.0367,4.0,3.997911955,42.87109148,5.66,'11111222,11111222,11111222' 
TABS,ioos:station:wmo:42046:1,2008-10-01T15:30:00Z,27.8903,-94.0367,4.0,4.177379561,34.56474336,5.67,'11111222,11111222,11111222' 
TABS,ioos:station:wmo:42046:1,2008-10-01T16:00:00Z,27.8903,-94.0367,4.0,4.002923931,38.10065226,5.52,'11111222,11111222,11111222' 
TABS,ioos:station:wmo:42046:1,2008-10-01T16:30:00Z,27.8903,-94.0367,4.0,4.245903908,28.25478154,5.67,'11111222,11111222,11111222' 
TABS,ioos:station:wmo:42046:1,2008-10-01T17:00:00Z,27.8903,-94.0367,4.0,3.608462276,22.65624344,4.87,'11111222,11111222,11111222' 
TABS,ioos:station:wmo:42046:1,2008-10-01T17:30:00Z,27.8903,-94.0367,4.0,4.085339643,21.54071509,5.38,'11111222,11111222,11111222' 
TABS,ioos:station:wmo:42046:1,2008-10-01T18:00:00Z,27.8903,-94.0367,4.0,4.47832558,17.54458029,6.0,'11111222,11111222,11111222' 
TABS,ioos:station:wmo:42046:1,2008-10-01T18:30:00Z,27.8903,-94.0367,4.0,4.796717628,21.26879964,6.43,'11111222,11111222,11111222' 
TABS,ioos:station:wmo:42046:1,2008-10-01T19:00:00Z,27.8903,-94.0367,4.0,4.790093945,22.97844228,6.68,'11111222,11111222,11111222' 
TABS,ioos:station:wmo:42046:1,2008-10-01T19:30:00Z,27.8903,-94.0367,4.0,4.758487155,16.60673129,6.23,'11111222,11111222,11111222' 
TABS,ioos:station:wmo:42046:1,2008-10-01T20:00:00Z,27.8903,-94.0367,4.0,4.561797891,10.86631593,6.14,'11111222,11111222,11111222' 
TABS,ioos:station:wmo:42046:1,2008-10-01T20:30:00Z,27.8903,-94.0367,4.0,4.652493955,9.401352212,6.74,'11111222,11111222,11111222' 
TABS,ioos:station:wmo:42046:1,2008-10-01T21:00:00Z,27.8903,-94.0367,4.0,4.547394859,18.19563275,6.01,'11111222,11111222,11111222' 
TABS,ioos:station:wmo:42046:1,2008-10-01T21:30:00Z,27.8903,-94.0367,4.0,4.712589522,13.62317201,6.26,'11111222,11111222,11111222' 
TABS,ioos:station:wmo:42046:1,2008-10-01T22:00:00Z,27.8903,-94.0367,4.0,5.117538471,14.25323382,7.43,'11111222,11111222,11111222' 
TABS,ioos:station:wmo:42046:1,2008-10-01T22:30:00Z,27.8903,-94.0367,4.0,5.067938437,10.68886922,7.03,'11111222,11111222,11111222' 
TABS,ioos:station:wmo:42046:1,2008-10-01T23:00:00Z,27.8903,-94.0367,4.0,5.278872986,17.30197508,7.18,'11111222,11111222,11111222' 
TABS,ioos:station:wmo:42046:1,2008-10-01T23:30:00Z,27.8903,-94.0367,4.0,4.729333991,15.82865993,7.19,'11111222,11111222,11111222' 
TABS,ioos:station:wmo:42046:1,2008-10-02T00:00:00Z,27.8903,-94.0367,4.0,5.145376565,17.76563085,7.36,'11111222,11111222,11111222' 
TABS,ioos:station:wmo:42046:1,2008-10-02T00:30:00Z,27.8903,-94.0367,4.0,4.695529789,13.79924267,6.2,'11111222,11111222,11111222' 
TABS,ioos:station:wmo:42046:1,2008-10-02T01:00:00Z,27.8903,-94.0367,4.0,4.568468015,22.52312813,6.46,'11111222,11111222,11111222' 
TABS,ioos:station:wmo:42046:1,2008-10-02T01:30:00Z,27.8903,-94.0367,4.0,4.386251247,22.23777025,6.25,'11111222,11111222,11111222' 
TABS,ioos:station:wmo:42046:1,2008-10-02T02:00:00Z,27.8903,-94.0367,4.0,4.042820797,26.43801853,5.57,'11111222,11111222,11111222' 
TABS,ioos:station:wmo:42046:1,2008-10-02T02:30:00Z,27.8903,-94.0367,4.0,4.40581434,29.35747443,5.51,'11111222,11111222,11111222' 
TABS,ioos:station:wmo:42046:1,2008-10-02T03:00:00Z,27.8903,-94.0367,4.0,4.430180583,28.58953894,5.47,'11111222,11111222,11111222' 
TABS,ioos:station:wmo:42046:1,2008-10-02T03:30:00Z,27.8903,-94.0367,4.0,4.48829589,32.62755799,5.96,'11111222,11111222,11111222' 
TABS,ioos:station:wmo:42046:1,2008-10-02T04:00:00Z,27.8903,-94.0367,4.0,4.737731525,34.59543027,6.25,'11111222,11111222,11111222' 
TABS,ioos:station:wmo:42046:1,2008-10-02T04:30:00Z,27.8903,-94.0367,4.0,4.699723396,30.00166632,6.1,'11111222,11111222,11111222' 
TABS,ioos:station:wmo:42046:1,2008-10-02T05:00:00Z,27.8903,-94.0367,4.0,4.33561991,31.41675254,5.62,'11111222,11111222,11111222' 
TABS,ioos:station:wmo:42046:1,2008-10-02T05:30:00Z,27.8903,-94.0367,4.0,5.524816739,33.63225256,6.95,'11111222,11111222,11111222' 
TABS,ioos:station:wmo:42046:1,2008-10-02T06:00:00Z,27.8903,-94.0367,4.0,5.703139486,35.72424258,7.45,'11111222,11111222,11111222' 
TABS,ioos:station:wmo:42046:1,2008-10-02T06:30:00Z,27.8903,-94.0367,4.0,5.316135815,37.27915655,6.64,'11111222,11111222,11111222' 
TABS,ioos:station:wmo:42046:1,2008-10-02T07:00:00Z,27.8903,-94.0367,4.0,5.316135815,42.33137856,6.88,'11111222,11111222,11111222' 
TABS,ioos:station:wmo:42046:1,2008-10-02T07:30:00Z,27.8903,-94.0367,4.0,4.497554891,44.27902237,6.5,'11111222,11111222,11111222' 
TABS,ioos:station:wmo:42046:1,2008-10-02T08:00:00Z,27.8903,-94.0367,4.0,3.605010402,48.26054746,4.95,'11111222,11111222,11111222' 
TABS,ioos:station:wmo:42046:1,2008-10-02T08:30:00Z,27.8903,-94.0367,4.0,3.652026835,49.33031212,5.52,'11111222,11111222,11111222' 
TABS,ioos:station:wmo:42046:1,2008-10-02T09:00:00Z,27.8903,-94.0367,4.0,4.149566242,55.50535937,6.2,'11111222,11111222,11111222' 
TABS,ioos:station:wmo:42046:1,2008-10-02T09:30:00Z,27.8903,-94.0367,4.0,4.056168142,67.22764544,6.0,'11111222,11111222,11111222' 
TABS,ioos:station:wmo:42046:1,2008-10-02T10:00:00Z,27.8903,-94.0367,4.0,4.217345136,60.76030404,5.69,'11111222,11111222,11111222' 
TABS,ioos:station:wmo:42046:1,2008-10-02T10:30:00Z,27.8903,-94.0367,4.0,4.166173304,74.26201781,5.74,'11111222,11111222,11111222' 
TABS,ioos:station:wmo:42046:1,2008-10-02T11:00:00Z,27.8903,-94.0367,4.0,4.695636272,59.11959927,6.41,'11111222,11111222,11111222' 
TABS,ioos:station:wmo:42046:1,2008-10-02T11:30:00Z,27.8903,-94.0367,4.0,4.591786145,60.08452146,6.42,'11111222,11111222,11111222' 
TABS,ioos:station:wmo:42046:1,2008-10-02T12:00:00Z,27.8903,-94.0367,4.0,3.984896485,76.20747501,5.31,'11111222,11111222,11111222' 
TABS,ioos:station:wmo:42046:1,2008-10-02T12:30:00Z,27.8903,-94.0367,4.0,3.826865558,74.07478603,6.27,'11111222,11111222,11111222' 
TABS,ioos:station:wmo:42046:1,2008-10-02T13:00:00Z,27.8903,-94.0367,4.0,3.632960225,61.74161555,5.71,'11111222,11111222,11111222' 
TABS,ioos:station:wmo:42046:1,2008-10-02T13:30:00Z,27.8903,-94.0367,4.0,3.251122883,70.78443071,4.84,'11111222,11111222,11111222' 
TABS,ioos:station:wmo:42046:1,2008-10-02T14:00:00Z,27.8903,-94.0367,4.0,3.919502519,76.42427644,5.44,'11111222,11111222,11111222' 
TABS,ioos:station:wmo:42046:1,2008-10-02T14:30:00Z,27.8903,-94.0367,4.0,3.437586363,69.03391627,5.01,'11111222,11111222,11111222' 
TABS,ioos:station:wmo:42046:1,2008-10-02T15:00:00Z,27.8903,-94.0367,4.0,3.53,90.00042092,5.44,'11111222,11111222,11111222' 
TABS,ioos:station:wmo:42046:1,2008-10-02T15:30:00Z,27.8903,-94.0367,4.0,3.203201523,81.74301549,4.23,'11111222,11111222,11111222' 
TABS,ioos:station:wmo:42046:1,2008-10-02T16:00:00Z,27.8903,-94.0367,4.0,3.150745943,85.26615182,4.94,'11111222,11111222,11111222' 
TABS,ioos:station:wmo:42046:1,2008-10-02T16:30:00Z,27.8903,-94.0367,4.0,3.479080338,81.40368775,4.45,'11111222,11111222,11111222' 
TABS,ioos:station:wmo:42046:1,2008-10-02T17:00:00Z,27.8903,-94.0367,4.0,2.97195222,77.36624669,4.53,'11111222,11111222,11111222' 
TABS,ioos:station:wmo:42046:1,2008-10-02T17:30:00Z,27.8903,-94.0367,4.0,2.006913052,82.55588008,3.19,'11111222,11111222,11111222' 
TABS,ioos:station:wmo:42046:1,2008-10-02T18:00:00Z,27.8903,-94.0367,4.0,2.162799112,87.08426378,3.66,'11111222,11111222,11111222' 
TABS,ioos:station:wmo:42046:1,2008-10-02T18:30:00Z,27.8903,-94.0367,4.0,1.839836949,79.66690273,3.33,'11111222,11111222,11111222' 
TABS,ioos:station:wmo:42046:1,2008-10-02T19:00:00Z,27.8903,-94.0367,4.0,1.290271289,108.9970307,2.48,'11111222,11111222,11111222' 
TABS,ioos:station:wmo:42046:1,2008-10-02T19:30:00Z,27.8903,-94.0367,4.0,0.975756117,65.79866408,1.79,'11111222,11111222,11111222' 
TABS,ioos:station:wmo:42046:1,2008-10-02T20:00:00Z,27.8903,-94.0367,4.0,0.425440948,113.5526295,1.41,'11111222,11111222,11111222' 
TABS,ioos:station:wmo:42046:1,2008-10-02T20:30:00Z,27.8903,-94.0367,4.0,1.440069443,96.77997301,2.75,'11111222,11111222,11111222' 
TABS,ioos:station:wmo:42046:1,2008-10-02T21:00:00Z,27.8903,-94.0367,4.0,1.298691649,83.36707998,2.82,'11111222,11111222,11111222' 
TABS,ioos:station:wmo:42046:1,2008-10-02T21:30:00Z,27.8903,-94.0367,4.0,1.436175477,109.9493965,2.64,'11111222,11111222,11111222' 
TABS,ioos:station:wmo:42046:1,2008-10-02T22:00:00Z,27.8903,-94.0367,4.0,1.206150903,49.70752555,2.27,'11111222,11111222,11111222' 
TABS,ioos:station:wmo:42046:1,2008-10-02T22:30:00Z,27.8903,-94.0367,4.0,1.103449138,46.46848159,2.13,'11111222,11111222,11111222' 
TABS,ioos:station:wmo:42046:1,2008-10-02T23:00:00Z,27.8903,-94.0367,4.0,1.195491531,107.5259483,2.07,'11111222,11111222,11111222' 
TABS,ioos:station:wmo:42046:1,2008-10-02T23:30:00Z,27.8903,-94.0367,4.0,1.270157471,89.09736003,2.09,'11111222,11111222,11111222' 
TABS,ioos:station:wmo:42046:1,2008-10-03T00:00:00Z,27.8903,-94.0367,4.0,1.604400199,73.71084314,3.0,'11111222,11111222,11111222' 
TABS,ioos:station:wmo:42046:1,2008-10-03T00:30:00Z,27.8903,-94.0367,4.0,1.467685252,95.86637834,2.56,'11111222,11111222,11111222' 
TABS,ioos:station:wmo:42046:1,2008-10-03T01:00:00Z,27.8903,-94.0367,4.0,1.372333779,86.65764304,2.47,'11111222,11111222,11111222' 
TABS,ioos:station:wmo:42046:1,2008-10-03T01:30:00Z,27.8903,-94.0367,4.0,2.107605276,99.28395201,3.26,'11111222,11111222,11111222' 
TABS,ioos:station:wmo:42046:1,2008-10-03T02:00:00Z,27.8903,-94.0367,4.0,1.838477631,104.4901496,3.12,'11111222,11111222,11111222' 
TABS,ioos:station:wmo:42046:1,2008-10-03T02:30:00Z,27.8903,-94.0367,4.0,1.936517493,116.036135,3.26,'11111222,11111222,11111222' 
TABS,ioos:station:wmo:42046:1,2008-10-03T03:00:00Z,27.8903,-94.0367,4.0,2.309328907,110.0046778,3.59,'11111222,11111222,11111222' 
TABS,ioos:station:wmo:42046:1,2008-10-03T03:30:00Z,27.8903,-94.0367,4.0,2.074801195,107.3873524,3.62,'11111222,11111222,11111222' 
TABS,ioos:station:wmo:42046:1,2008-10-03T04:00:00Z,27.8903,-94.0367,4.0,1.43850617,99.20079987,2.77,'11111222,11111222,11111222' 
TABS,ioos:station:wmo:42046:1,2008-10-03T04:30:00Z,27.8903,-94.0367,4.0,2.179931192,99.50593038,3.42,'11111222,11111222,11111222' 
TABS,ioos:station:wmo:42046:1,2008-10-03T05:00:00Z,27.8903,-94.0367,4.0,2.330193125,90.73809233,3.66,'11111222,11111222,11111222' 
TABS,ioos:station:wmo:42046:1,2008-10-03T05:30:00Z,27.8903,-94.0367,4.0,2.707489612,111.4481071,4.38,'11111222,11111222,11111222' 
TABS,ioos:station:wmo:42046:1,2008-10-03T06:00:00Z,27.8903,-94.0367,4.0,3.059836597,124.884978,4.32,'11111222,11111222,11111222' 
TABS,ioos:station:wmo:42046:1,2008-10-03T06:30:00Z,27.8903,-94.0367,4.0,3.25,128.8803997,4.58,'11111222,11111222,11111222' 
TABS,ioos:station:wmo:42046:1,2008-10-03T07:00:00Z,27.8903,-94.0367,4.0,3.061110909,131.2918962,4.89,'11111222,11111222,11111222' 
TABS,ioos:station:wmo:42046:1,2008-10-03T07:30:00Z,27.8903,-94.0367,4.0,2.596247292,122.894688,4.32,'11111222,11111222,11111222' 
TABS,ioos:station:wmo:42046:1,2008-10-03T08:00:00Z,27.8903,-94.0367,4.0,3.570154058,128.8606476,4.96,'11111222,11111222,11111222' 
TABS,ioos:station:wmo:42046:1,2008-10-03T08:30:00Z,27.8903,-94.0367,4.0,3.735906851,123.6478739,5.41,'11111222,11111222,11111222' 
TABS,ioos:station:wmo:42046:1,2008-10-03T09:00:00Z,27.8903,-94.0367,4.0,3.770371334,136.612338,5.07,'11111222,11111222,11111222' 
TABS,ioos:station:wmo:42046:1,2008-10-03T09:30:00Z,27.8903,-94.0367,4.0,3.066496372,140.0272717,4.77,'11111222,11111222,11111222' 
TABS,ioos:station:wmo:42046:1,2008-10-03T10:00:00Z,27.8903,-94.0367,4.0,3.440726667,132.1731977,5.33,'11111222,11111222,11111222' 
TABS,ioos:station:wmo:42046:1,2008-10-03T10:30:00Z,27.8903,-94.0367,4.0,3.696106059,142.6963494,5.44,'11111222,11111222,11111222' 
TABS,ioos:station:wmo:42046:1,2008-10-03T11:00:00Z,27.8903,-94.0367,4.0,3.72108855,144.5163136,5.22,'11111222,11111222,11111222' 
TABS,ioos:station:wmo:42046:1,2008-10-03T11:30:00Z,27.8903,-94.0367,4.0,3.824133889,142.6509488,4.96,'11111222,11111222,11111222' 
TABS,ioos:station:wmo:42046:1,2008-10-03T12:00:00Z,27.8903,-94.0367,4.0,4.207433897,146.5368348,5.74,'11111222,11111222,11111222' 
TABS,ioos:station:wmo:42046:1,2008-10-03T12:30:00Z,27.8903,-94.0367,4.0,4.154804448,156.1497923,5.96,'11111222,11111222,11111222' 
TABS,ioos:station:wmo:42046:1,2008-10-03T13:00:00Z,27.8903,-94.0367,4.0,4.266907545,150.6717842,5.99,'11111222,11111222,11111222' 
TABS,ioos:station:wmo:42046:1,2008-10-03T13:30:00Z,27.8903,-94.0367,4.0,4.482019634,160.3120361,6.07,'11111222,11111222,11111222' 
TABS,ioos:station:wmo:42046:1,2008-10-03T14:00:00Z,27.8903,-94.0367,4.0,4.845802307,162.8366704,6.59,'11111222,11111222,11111222' 
TABS,ioos:station:wmo:42046:1,2008-10-03T14:30:00Z,27.8903,-94.0367,4.0,4.809261898,163.4493506,6.22,'11111222,11111222,11111222' 
TABS,ioos:station:wmo:42046:1,2008-10-03T15:00:00Z,27.8903,-94.0367,4.0,5.495343483,168.2404549,7.51,'11111222,11111222,11111222' 
TABS,ioos:station:wmo:42046:1,2008-10-03T15:30:00Z,27.8903,-94.0367,4.0,4.685402864,158.8573936,6.09,'11111222,11111222,11111222' 
TABS,ioos:station:wmo:42046:1,2008-10-03T16:00:00Z,27.8903,-94.0367,4.0,4.181339498,166.1634038,5.97,'11111222,11111222,11111222' 
TABS,ioos:station:wmo:42046:1,2008-10-03T16:30:00Z,27.8903,-94.0367,4.0,4.557740668,168.7396122,6.3,'11111222,11111222,11111222' 
TABS,ioos:station:wmo:42046:1,2008-10-03T17:00:00Z,27.8903,-94.0367,4.0,4.642240838,161.4091862,6.49,'11111222,11111222,11111222' 
TABS,ioos:station:wmo:42046:1,2008-10-03T17:30:00Z,27.8903,-94.0367,4.0,3.677934203,155.2468884,5.15,'11111222,11111222,11111222' 
TABS,ioos:station:wmo:42046:1,2008-10-03T18:00:00Z,27.8903,-94.0367,4.0,3.395776789,155.0954999,4.97,'11111222,11111222,11111222' 
TABS,ioos:station:wmo:42046:1,2008-10-03T18:30:00Z,27.8903,-94.0367,4.0,3.381198013,165.2653071,4.53,'11111222,11111222,11111222' 
TABS,ioos:station:wmo:42046:1,2008-10-03T19:00:00Z,27.8903,-94.0367,4.0,3.628360511,168.0709162,5.6,'11111222,11111222,11111222' 
TABS,ioos:station:wmo:42046:1,2008-10-03T19:30:00Z,27.8903,-94.0367,4.0,3.134980064,153.2717535,4.54,'11111222,11111222,11111222' 
TABS,ioos:station:wmo:42046:1,2008-10-03T20:00:00Z,27.8903,-94.0367,4.0,2.901258348,163.376668,4.52,'11111222,11111222,11111222' 
TABS,ioos:station:wmo:42046:1,2008-10-03T20:30:00Z,27.8903,-94.0367,4.0,2.302889489,131.303275,3.66,'11111222,11111222,11111222' 
TABS,ioos:station:wmo:42046:1,2008-10-03T21:00:00Z,27.8903,-94.0367,4.0,2.347296317,128.7745012,3.54,'11111222,11111222,11111222' 
TABS,ioos:station:wmo:42046:1,2008-10-03T21:30:00Z,27.8903,-94.0367,4.0,2.438893192,125.3195395,4.04,'11111222,11111222,11111222' 
TABS,ioos:station:wmo:42046:1,2008-10-03T22:00:00Z,27.8903,-94.0367,4.0,2.388723508,115.278084,3.59,'11111222,11111222,11111222' 
TABS,ioos:station:wmo:42046:1,2008-10-03T22:30:00Z,27.8903,-94.0367,4.0,2.357710754,100.2617716,4.47,'11111222,11111222,11111222' 
TABS,ioos:station:wmo:42046:1,2008-10-03T23:00:00Z,27.8903,-94.0367,4.0,3.118589425,96.25944259,4.82,'11111222,11111222,11111222' 
TABS,ioos:station:wmo:42046:1,2008-10-03T23:30:00Z,27.8903,-94.0367,4.0,3.61835598,101.1550546,4.88,'11111222,11111222,11111222' 
TABS,ioos:station:wmo:42046:1,2008-10-04T00:00:00Z,27.8903,-94.0367,4.0,4.172780847,120.3753912,5.44,'11111222,11111222,11111222' 
TABS,ioos:station:wmo:42046:1,2008-10-04T00:30:00Z,27.8903,-94.0367,4.0,4.20468786,105.590143,6.22,'11111222,11111222,11111222' 
TABS,ioos:station:wmo:42046:1,2008-10-04T01:00:00Z,27.8903,-94.0367,4.0,4.98014056,110.327506,6.68,'11111222,11111222,11111222' 
TABS,ioos:station:wmo:42046:1,2008-10-04T01:30:00Z,27.8903,-94.0367,4.0,5.002889165,114.5675348,6.46,'11111222,11111222,11111222' 
TABS,ioos:station:wmo:42046:1,2008-10-04T02:00:00Z,27.8903,-94.0367,4.0,5.214633257,116.1723071,7.05,'11111222,11111222,11111222' 
TABS,ioos:station:wmo:42046:1,2008-10-04T02:30:00Z,27.8903,-94.0367,4.0,5.471316112,119.3295835,7.85,'11111222,11111222,11111222' 
TABS,ioos:station:wmo:42046:1,2008-10-04T03:00:00Z,27.8903,-94.0367,4.0,5.512177428,122.4795094,7.51,'11111222,11111222,11111222' 
TABS,ioos:station:wmo:42046:1,2008-10-04T03:30:00Z,27.8903,-94.0367,4.0,5.464796428,132.3304322,7.23,'11111222,11111222,11111222' 
TABS,ioos:station:wmo:42046:1,2008-10-04T04:00:00Z,27.8903,-94.0367,4.0,5.548062725,139.6790459,7.29,'11111222,11111222,11111222' 
TABS,ioos:station:wmo:42046:1,2008-10-04T04:30:00Z,27.8903,-94.0367,4.0,5.644856065,133.4211365,7.33,'11111222,11111222,11111222' 
TABS,ioos:station:wmo:42046:1,2008-10-04T05:00:00Z,27.8903,-94.0367,4.0,5.582436744,140.3787087,7.17,'11111222,11111222,11111222' 
TABS,ioos:station:wmo:42046:1,2008-10-04T05:30:00Z,27.8903,-94.0367,4.0,5.340430694,140.3183623,6.92,'11111222,11111222,11111222' 
TABS,ioos:station:wmo:42046:1,2008-10-04T06:00:00Z,27.8903,-94.0367,4.0,5.490537314,139.5801106,7.34,'11111222,11111222,11111222' 
TABS,ioos:station:wmo:42046:1,2008-10-04T06:30:00Z,27.8903,-94.0367,4.0,5.622819577,142.1521266,7.97,'11111222,11111222,11111222' 
TABS,ioos:station:wmo:42046:1,2008-10-04T07:00:00Z,27.8903,-94.0367,4.0,5.829828471,144.5654393,8.1,'11111222,11111222,11111222' 
TABS,ioos:station:wmo:42046:1,2008-10-04T07:30:00Z,27.8903,-94.0367,4.0,5.226097971,143.4812291,6.81,'11111222,11111222,11111222' 
TABS,ioos:station:wmo:42046:1,2008-10-04T08:00:00Z,27.8903,-94.0367,4.0,5.107298699,138.4133503,6.95,'11111222,11111222,11111222' 
TABS,ioos:station:wmo:42046:1,2008-10-04T08:30:00Z,27.8903,-94.0367,4.0,5.784565671,134.2999148,7.95,'11111222,11111222,11111222' 
TABS,ioos:station:wmo:42046:1,2008-10-04T09:00:00Z,27.8903,-94.0367,4.0,5.858685859,137.0753372,7.32,'11111222,11111222,11111222' 
TABS,ioos:station:wmo:42046:1,2008-10-04T09:30:00Z,27.8903,-94.0367,4.0,6.09631036,133.9369455,8.18,'11111222,11111222,11111222' 
TABS,ioos:station:wmo:42046:1,2008-10-04T10:00:00Z,27.8903,-94.0367,4.0,6.366945893,130.796835,8.24,'11111222,11111222,11111222' 
TABS,ioos:station:wmo:42046:1,2008-10-04T10:30:00Z,27.8903,-94.0367,4.0,6.328262005,122.2840477,8.39,'11111222,11111222,11111222' 
TABS,ioos:station:wmo:42046:1,2008-10-04T11:00:00Z,27.8903,-94.0367,4.0,6.13225081,123.89772,8.54,'11111222,11111222,11111222' 
TABS,ioos:station:wmo:42046:1,2008-10-04T11:30:00Z,27.8903,-94.0367,4.0,6.147519825,124.9312765,8.01,'11111222,11111222,11111222' 
TABS,ioos:station:wmo:42046:1,2008-10-04T12:00:00Z,27.8903,-94.0367,4.0,5.904066395,119.8656015,8.15,'11111222,11111222,11111222' 
TABS,ioos:station:wmo:42046:1,2008-10-04T12:30:00Z,27.8903,-94.0367,4.0,5.777283098,123.9929763,7.51,'11111222,11111222,11111222' 
TABS,ioos:station:wmo:42046:1,2008-10-04T13:00:00Z,27.8903,-94.0367,4.0,6.20196743,123.0242112,9.48,'11111222,11111222,11111222' 
TABS,ioos:station:wmo:42046:1,2008-10-04T13:30:00Z,27.8903,-94.0367,4.0,6.35051179,122.2639453,8.24,'11111222,11111222,11111222' 
TABS,ioos:station:wmo:42046:1,2008-10-04T14:00:00Z,27.8903,-94.0367,4.0,7.142618567,115.8120354,9.29,'11111222,11111222,11111222' 
TABS,ioos:station:wmo:42046:1,2008-10-04T14:30:00Z,27.8903,-94.0367,4.0,7.050028369,117.9103018,9.09,'11111222,11111222,11111222' 
TABS,ioos:station:wmo:42046:1,2008-10-04T15:00:00Z,27.8903,-94.0367,4.0,6.638109671,122.6370355,8.64,'11111222,11111222,11111222' 
TABS,ioos:station:wmo:42046:1,2008-10-04T15:30:00Z,27.8903,-94.0367,4.0,6.834332447,121.2947914,9.01,'11111222,11111222,11111222' 
TABS,ioos:station:wmo:42046:1,2008-10-04T16:00:00Z,27.8903,-94.0367,4.0,6.576153891,112.626935,8.82,'11111222,11111222,11111222' 
TABS,ioos:station:wmo:42046:1,2008-10-04T16:30:00Z,27.8903,-94.0367,4.0,6.165744075,114.7365622,7.93,'11111222,11111222,11111222' 
TABS,ioos:station:wmo:42046:1,2008-10-04T17:00:00Z,27.8903,-94.0367,4.0,6.257068003,110.781484,8.25,'11111222,11111222,11111222' 
TABS,ioos:station:wmo:42046:1,2008-10-04T17:30:00Z,27.8903,-94.0367,4.0,5.802973376,108.903673,7.92,'11111222,11111222,11111222' 
TABS,ioos:station:wmo:42046:1,2008-10-04T18:00:00Z,27.8903,-94.0367,4.0,5.498554355,119.4091917,7.29,'11111222,11111222,11111222' 
TABS,ioos:station:wmo:42046:1,2008-10-04T18:30:00Z,27.8903,-94.0367,4.0,5.067790446,112.2636618,7.03,'11111222,11111222,11111222' 